Погода в Тхайбине

Вьетнам     20°27′00″N   106°20′28″E
темп.,
°C
ветер,
м/с
пор.,
м/с
влажн.,
%
обл.,
%
осадки,
мм/ч
давл.,
гПа
погр.,
м
27 января, ср
ср2701:00+18юв119420 0.0 101526
04:00+17в129519 0.0 101529
07:00+17вюв239415 0.0 101686
10:00+22юв347039 0.0 1018703
13:00+23ююв336369 0.0 1015921
16:00+24юв446057 0.0 1014895
19:00+20вюв468332 0.0 1015280
22:00+19вюв25886 0.0 1017234
28 января, чт
чт2801:00+18в36917 0.0 1017267
04:00+19в588368 0.0 1018443
07:00+19в598384 0.1 1021441
10:00+22в5771100 0.1 1023784
13:00+21всв577097 0.6 1022827
16:00+20ссв2470100 0.3 1021550
19:00+18ссз466482 0.3 1023278
22:00+16ссз366539 0.0 1024285
29 января, пт
пт2901:00+16ссз356360 0.0 1023304
04:00+15ссз246781 0.0 1022142
07:00+15ссз236770 0.0 1024156
10:00+20вюв135231 0.0 1026979
13:00+22вюв544816 0.0 10221059
16:00+21вюв45530 0.0 1020813
19:00+17вюв34680 0.0 1020476
22:00+17вюв35733 0.0 1021431
30 января, сб
сб3001:00+16вюв128010 0.0 1020108
04:00+17всв247982 0.0 1019436
07:00+17всв378286 0.0 1020455
10:00+20в5773100 0.1 1022756
13:00+23в556394 0.3 1020926
16:00+21в567597 0.3 1018621
19:00+19в468098 0.3 1020435
22:00+19в368080 0.0 1021404
31 января, вс
вс3101:00+19в378190 0.0 1020590
04:00+19в4886100 0.1 1019504
07:00+19в378898 0.1 1020511
10:00+22в687182 0.1 1022662
13:00+22вюв687288 0.3 1020607
16:00+21вюв5776100 0.1 1018545
19:00+19вюв5784100 0.1 1019349
22:00+19вюв358673 0.0 1020273